RH
89 93 96 98 86 80 69 57 50 50 42 40 48 75 76 74 75 75 70 66 54 41 34 35 46 55 50 36 29 27 26 31 41 31 30 51 34 27 23 36 98 96 74 46 38
82 76 68 77 70 68 60 58 50 58 71 84 83 96 96 97 100 76 70 68 62 53 41 36 48 59 48 47 41 32 25 32 30 39 32 34 46 50 28 29 94 100 95 54 40
96 100 95 90 90 71 65 56 79 90 94 100 100 100 87 72 92 91 92 84 70 51 44 53 64 66 59 49 37 33 33 29 32 33 33 28 37 57 39 27 53 100 100 69 47
54 98 100 100 100 100 100 94 86 99 99 100 100 98 92 100 100 99 83 71 58 50 50 57 65 72 67 54 48 40 37 32 34 35 37 36 41 40 41 35 30 96 100 88 52
45 63 78 100 100 100 100 99 97 100 100 100 100 100 99 100 98 86 62 55 52 71 89 84 80 73 56 57 56 53 44 100 93 99 95 54 40 45 36 49 31 74 100 98 57
44 47 72 87 100 100 100 100 100 100 100 100 100 100 100 100 99 76 64 63 54 59 57 78 69 55 64 72 77 58 44 48 75 69 56 42 41 39 39 47 34 48 100 100 67
77 53 54 94 67 100 100 100 100 100 100 100 100 100 100 99 98 98 100 99 99 80 77 63 57 48 40 58 74 72 52 43 95 99 83 78 37 43 35 34 32 38 100 100 71
100 90 74 89 100 73 97 89 99 100 100 100 100 100 100 100 100 100 100 100 100 89 76 84 76 72 90 66 52 39 40 41 85 73 67 74 34 38 29 32 31 33 96 100 99
100 100 97 85 92 100 100 100 100 100 100 100 100 96 100 91 97 99 87 100 100 100 100 100 95 84 91 70 47 44 38 35 37 49 46 40 24 25 27 30 33 35 99 94 100
100 100 88 100 96 100 100 95 100 79 69 79 94 97 100 100 92 100 100 100 100 100 100 99 100 100 93 69 58 40 38 36 31 37 35 26 22 21 29 33 33 44 98 77 100
100 100 85 100 100 100 100 100 100 100 100 100 100 88 88 66 100 100 100 100 100 100 100 94 82 96 89 69 65 57 48 36 32 32 28 20 18 20 23 31 27 51 95 99 100
100 88 77 100 100 100 100 100 100 100 100 100 100 100 100 90 87 100 99 96 90 100 96 100 100 100 97 94 75 61 52 42 32 31 24 19 19 21 32 37 27 64 97 100 92
100 100 86 100 100 100 100 100 100 100 100 100 99 100 100 100 99 100 100 100 100 100 100 100 99 95 81 74 73 64 51 36 28 26 24 17 18 20 32 55 44 84 99 95 100
100 100 100 100 100 100 100 100 100 100 100 100 100 100 100 100 100 100 100 100 100 100 100 85 100 92 81 65 59 46 45 35 28 20 21 15 17 21 33 74 53 81 96 98 100
100 100 100 100 100 100 100 100 100 96 78 100 95 100 100 100 100 100 100 100 100 92 86 75 75 68 62 60 49 40 34 30 26 20 18 20 16 36 44 96 75 80 98 100 100
100 100 100 100 100 100 100 100 100 100 100 100 96 100 98 100 100 100 100 100 100 86 72 56 58 55 48 49 40 34 37 26 21 20 16 27 18 40 61 100 75 84 92 100 100
100 100 100 100 100 91 96 83 80 91 100 94 96 100 71 79 80 99 93 90 91 81 71 62 53 45 41 37 39 35 34 22 19 19 21 23 16 48 97 94 82 99 100 100 100
100 100 100 100 100 94 97 86 79 98 100 100 99 74 76 68 96 100 83 70 76 78 69 50 47 46 40 36 35 32 32 25 22 18 20 18 31 51 100 100 83 100 90 99 100
90 99 98 99 88 81 76 67 92 99 100 98 80 96 73 66 85 90 71 52 51 66 50 37 35 41 40 32 32 34 28 27 15 15 14 20 41 54 93 100 100 100 67 89 99
64 57 76 70 67 64 46 50 63 67 83 62 59 60 60 57 60 97 81 59 52 47 36 33 24 38 37 34 32 27 25 18 14 15 18 28 50 80 96 100 100 100 99 73 98
25 27 37 26 33 32 31 34 37 47 52 38 38 46 46 43 47 55 52 50 50 32 26 26 24 31 31 30 27 22 20 13 13 16 19 32 61 100 100 100 100 100 100 100 79
17 20 21 20 20 22 20 21 23 26 33 30 26 29 39 37 30 30 40 42 30 25 19 21 25 24 25 19 16 16 15 11 11 20 21 33 83 100 100 100 100 100 100 100 92
10 11 10 10 10 10 11 12 17 21 24 22 20 24 25 26 23 25 27 27 20 17 13 12 13 15 13 12 10 11 10 9 12 17 18 43 100 100 100 100 100 87 100 100 100
8 8 8 7 7 6 6 7 8 9 9 8 10 10 13 13 13 14 14 18 12 9 9 9 10 10 10 11 8 11 10 11 11 16 31 62 100 96 100 100 100 78 99 100 100
4 4 3 4 3 4 4 4 4 5 5 6 7 7 7 8 9 9 9 10 10 9 7 7 9 8 9 10 7 11 10 13 11 14 30 66 100 100 100 100 100 100 92 100 100
4 4 3 3 3 3 3 3 3 3 4 4 4 4 4 5 5 5 6 6 5 5 5 5 7 6 8 8 8 10 10 12 18 24 36 55 100 100 100 100 100 100 97 62 76
3 3 3 3 3 3 3 3 3 3 3 4 4 5 4 4 5 5 5 5 5 5 5 6 7 7 10 9 7 8 10 13 22 40 67 64 100 100 100 100 100 100 72 83 88
Wind_Speed
62 61 62 60 62 63 62 63 62 63 62 60 60 59 54 53 54 53 53 54 57 58 55 57 58 58 59 65 62 59 56 52 57 57 58 57 56 52 47 37 34 36 30 29 33
62 65 66 66 64 63 62 65 65 65 65 62 65 61 57 59 58 57 56 57 57 59 57 59 60 62 63 64 65 64 61 60 60 58 58 55 55 53 50 42 38 32 33 29 30
62 61 64 63 65 67 64 62 63 63 65 66 63 56 57 57 58 56 58 58 59 61 61 63 64 65 64 66 68 69 68 67 62 59 58 58 54 52 52 45 41 32 33 28 30
64 65 64 68 70 69 69 67 66 65 67 64 62 61 58 60 58 61 65 62 65 64 66 66 67 66 67 68 69 69 72 62 59 62 60 59 52 51 53 52 48 32 34 30 29
60 67 69 67 66 72 70 68 70 71 71 68 65 62 62 66 70 65 70 68 67 63 64 65 67 70 68 68 69 74 67 58 55 56 60 63 58 55 50 56 51 35 33 34 26
68 65 73 71 68 62 69 74 73 73 68 67 69 68 69 72 71 74 74 74 74 70 70 68 71 73 73 74 74 74 74 67 67 67 66 63 60 55 54 60 52 40 33 37 27
79 72 71 76 79 76 70 71 69 73 74 72 73 75 75 78 74 74 73 76 74 74 75 76 74 75 75 75 75 77 76 72 69 72 71 77 50 60 63 60 56 43 35 37 28
89 80 74 77 79 80 80 79 80 77 74 76 76 74 75 71 74 73 73 75 76 79 80 80 79 77 77 78 81 83 83 74 76 78 80 85 59 68 60 55 56 43 37 37 34
90 83 84 78 81 80 78 81 83 83 84 84 80 77 79 79 77 80 82 80 81 82 79 82 82 81 81 85 86 90 86 84 76 82 82 85 58 57 52 52 52 43 40 32 35
92 92 85 90 82 83 84 90 85 85 85 84 85 82 83 82 84 88 89 87 85 85 85 87 82 81 85 93 87 90 91 89 83 81 76 71 57 53 51 50 48 44 39 32 35
95 93 88 92 88 88 89 88 90 86 85 89 91 90 89 91 86 89 88 95 97 90 90 96 92 89 93 93 93 96 96 92 87 79 71 67 51 52 50 53 48 43 39 35 35
93 89 88 93 94 92 90 92 94 94 87 89 90 88 93 93 84 96 100 98 100 99 100 97 91 93 93 96 99 99 100 98 82 72 64 61 49 49 42 50 47 42 37 36 31
90 87 90 95 92 97 95 95 100 98 96 94 99 91 92 95 92 97 96 98 96 93 96 94 91 98 100 100 103 106 105 93 76 66 59 61 46 48 44 45 53 41 41 35 32
91 91 92 89 94 92 90 96 104 108 98 92 93 88 89 91 88 89 90 92 93 94 100 97 96 101 104 104 106 103 99 85 72 59 53 59 41 44 44 47 51 43 36 36 36
96 96 99 98 95 97 91 96 101 98 102 102 95 87 94 98 99 97 97 96 98 99 105 100 100 104 104 103 103 95 87 76 69 59 50 54 42 46 49 50 50 41 40 42 34
94 94 93 96 102 103 102 102 103 102 90 98 100 95 98 98 100 102 102 103 104 106 108 103 104 103 102 104 98 92 84 76 59 56 42 53 50 47 51 50 50 46 43 39 32
89 89 90 94 99 102 99 105 106 99 94 99 106 103 111 103 105 105 106 107 107 110 109 110 107 107 108 110 94 82 79 74 57 53 38 54 49 45 47 50 54 51 46 38 34
93 94 94 98 103 103 103 108 107 99 97 101 109 115 111 101 104 109 113 111 109 112 114 116 114 106 109 100 90 80 82 69 57 50 45 50 47 49 59 56 58 54 49 38 35
103 104 103 107 110 111 110 112 103 103 103 111 116 116 119 108 103 111 117 119 118 117 121 115 106 98 99 92 84 84 70 69 51 48 41 47 52 58 58 52 50 46 48 42 39
94 99 107 109 110 111 112 108 109 113 116 121 119 122 124 121 110 108 115 116 118 118 112 104 84 85 88 89 87 74 67 60 46 44 42 48 55 59 60 50 53 50 51 46 46
93 92 100 98 101 103 104 102 105 110 117 120 117 119 121 119 115 114 116 115 118 111 94 91 84 81 86 83 81 75 60 52 47 43 45 52 55 58 53 58 56 51 50 51 47
89 88 95 98 96 96 97 95 97 96 105 105 104 104 112 112 109 106 108 107 102 100 89 82 81 75 77 74 70 64 57 47 44 48 50 53 58 64 52 49 61 56 49 54 53
79 80 86 87 89 88 88 85 87 93 101 101 102 99 102 102 99 96 95 97 92 87 78 71 68 64 61 64 62 56 53 47 46 53 48 55 65 71 66 59 60 62 48 50 53
71 72 79 78 80 79 81 75 80 86 89 89 89 88 90 89 86 85 83 86 81 75 70 63 58 56 50 57 52 47 50 48 50 51 58 63 74 77 70 63 62 66 60 54 55
63 65 70 69 68 67 69 69 71 73 74 77 75 76 76 75 75 73 72 71 70 69 62 56 52 53 46 52 46 45 45 46 45 55 61 70 74 70 76 71 66 61 67 64 60
56 57 55 56 56 54 55 60 58 57 58 60 61 62 62 63 63 62 62 61 58 57 52 49 47 47 43 49 44 46 41 45 43 57 62 71 76 74 75 71 67 70 73 72 67
45 46 43 46 45 43 46 46 47 45 42 48 47 50 52 49 51 50 48 46 46 44 41 41 41 40 43 45 43 34 34 44 53 65 70 73 82 79 79 75 77 76 75 63 57
Wind_Direction
269 270 267 264 264 265 266 269 272 270 270 270 272 270 266 265 271 275 281 282 282 284 287 292 294 295 295 296 298 296 301 291 287 285 276 276 280 280 267 265 278 278 287 300 307
279 277 275 269 266 265 265 269 269 264 265 267 268 267 266 268 272 275 278 279 282 285 289 293 295 294 294 296 297 299 300 296 286 286 280 275 276 277 268 260 275 272 277 295 298
275 274 275 272 269 268 266 267 266 266 268 266 268 267 270 271 272 277 280 280 283 284 289 293 293 293 293 295 299 299 303 298 292 287 282 279 273 272 272 266 261 267 270 281 290
276 269 271 270 266 265 266 265 263 262 267 264 264 270 272 269 270 278 282 283 285 288 288 290 290 289 291 294 297 299 304 294 290 290 284 285 277 271 270 267 257 259 266 273 284
289 270 268 269 268 267 266 265 264 266 266 264 265 270 272 267 268 273 280 283 285 288 288 287 288 291 292 295 293 300 301 295 290 286 286 282 278 272 268 263 258 255 263 268 278
287 285 265 262 264 262 266 267 266 265 264 263 266 264 267 267 271 277 277 279 281 281 285 284 289 292 293 295 295 297 298 293 285 284 285 284 279 272 268 262 255 247 255 261 275
286 284 276 264 262 260 259 258 261 262 260 260 266 268 265 272 275 278 277 280 282 282 284 283 287 291 293 294 295 296 298 299 286 286 287 286 281 275 264 260 251 242 247 257 270
282 282 279 263 264 263 264 264 264 265 263 260 261 263 267 271 275 277 278 278 278 280 284 283 284 289 288 291 291 294 294 292 287 284 283 283 285 275 264 253 247 241 246 250 261
277 277 278 270 261 262 264 267 266 263 264 261 260 266 270 271 272 273 275 277 278 280 280 280 283 286 287 288 291 294 293 290 289 288 284 284 279 271 259 246 244 235 244 244 254
274 274 273 268 262 263 263 265 263 265 268 267 268 266 263 265 274 271 274 277 275 279 278 280 281 283 282 285 292 293 292 293 293 291 288 285 281 265 245 240 240 230 240 240 250
274 272 272 262 264 261 256 257 261 260 262 263 267 267 268 268 270 273 269 274 278 277 274 281 284 281 280 285 289 290 291 293 295 290 288 281 276 264 244 236 230 227 240 242 246
271 271 273 260 259 260 259 256 262 259 259 262 262 266 269 269 269 269 271 274 275 276 276 275 279 276 281 284 287 288 291 293 292 289 286 276 272 257 234 230 225 225 236 239 242
269 270 273 260 260 261 259 259 259 259 258 263 263 265 266 267 270 269 271 270 271 269 269 272 277 279 281 284 287 288 290 290 288 288 282 274 265 249 224 220 220 222 231 232 240
263 267 268 261 259 259 260 261 260 259 257 263 262 269 269 266 265 263 264 267 267 268 269 273 274 277 280 283 285 287 286 288 288 284 275 272 255 244 223 219 223 224 229 230 237
264 265 267 259 259 259 258 260 261 263 259 264 260 262 266 266 266 265 266 268 270 272 273 275 277 277 281 282 284 288 286 286 285 282 270 265 249 230 215 218 223 221 220 235 236
264 264 263 258 257 258 259 258 260 260 262 265 261 260 261 263 263 264 268 270 272 274 275 277 277 280 282 282 283 284 284 283 282 275 264 248 244 223 213 217 220 220 223 230 232
262 260 258 258 258 257 259 258 257 260 264 263 264 260 260 261 262 267 266 266 269 272 274 275 277 278 280 281 282 282 281 282 280 270 249 238 240 216 216 220 216 221 221 224 230
257 257 257 257 257 258 257 256 256 261 260 262 262 262 261 260 263 264 265 266 268 271 272 274 275 278 278 280 279 280 280 282 273 260 239 234 224 214 211 216 217 219 219 215 224
258 257 257 257 257 257 257 256 258 260 260 261 263 263 265 263 260 264 266 268 268 269 272 272 274 274 276 275 277 278 280 271 267 252 236 224 217 218 210 217 216 222 217 219 222
260 259 258 256 256 257 258 258 256 257 258 259 259 262 264 266 263 264 266 267 268 270 272 273 276 272 272 276 277 271 269 266 258 241 228 214 214 207 204 211 213 217 220 218 229
266 265 263 264 262 262 261 261 259 257 258 260 260 260 262 264 264 264 265 266 268 272 273 273 274 273 271 273 271 272 265 256 245 232 220 210 210 197 204 215 217 221 221 224 227
271 270 268 269 269 267 266 263 263 261 261 262 263 262 261 263 265 265 266 268 269 271 275 275 273 270 270 269 264 262 255 245 232 224 214 205 206 199 207 215 222 217 223 224 225
273 270 269 267 267 265 264 262 261 260 260 260 261 262 262 263 266 266 267 269 272 273 272 270 268 266 263 261 255 251 248 237 225 221 210 200 206 200 207 212 220 216 218 223 226
272 270 268 267 267 268 267 264 261 258 259 260 261 262 263 264 266 267 267 267 270 269 269 269 265 259 255 254 251 244 243 238 221 212 206 197 203 203 201 210 221 214 214 221 226
272 269 268 268 268 267 268 265 261 261 261 262 262 262 262 262 264 265 264 264 267 268 265 261 256 251 245 246 243 236 233 228 225 211 205 200 199 204 203 208 217 220 220 221 226
274 272 270 270 268 265 263 263 262 261 260 262 261 261 261 260 260 260 258 257 257 258 258 256 248 247 239 237 232 227 222 215 207 210 206 202 202 205 208 208 214 219 224 227 231
275 272 271 267 265 263 258 258 259 258 255 255 254 253 252 252 253 252 252 252 252 252 248 244 242 237 234 231 229 223 216 209 201 207 206 204 201 202 204 208 215 222 226 226 225